Weather History for KSUX - November, 2011

Change the Weather History Date:

Sunday, November 13, 2011

  Actual Average Record
Temperature  
Mean Temperature 42 °F 37 °F  
Max Temperature 52 °F 48 °F 78 °F (1999)
Min Temperature 32 °F 27 °F -4 °F (1986)
Degree Days  
Heating Degree Days 23 28  
Month to date heating degree days 305 317  
Since 1 July heating degree days 859 917  
Cooling Degree Days 0 0  
Month to date cooling degree days 0 0  
Year to date cooling degree days 1093 869  
Moisture  
Dew Point 32 °F    
Average Humidity 67    
Maximum Humidity 86    
Minimum Humidity 48    
Precipitation  
Precipitation 0.01 in 0.04 in 1.13 in (1909)
Month to date precipitation 0.04 0.57  
Year to date precipitation 23.34 26.20  
Snow  
Snow 0.00 in 0.10 in 2.00 in (1906)
Month to date snowfall 0.0 1.2  
Since 1 July snowfall 0.0 2.2  
Since 1 September snowfall 0.0 2.2  
Snow Depth 0.00 in    
Sea Level Pressure  
Sea Level Pressure 29.41 in    
Wind  
Wind Speed 9 mph (West)    
Max Wind Speed 29 mph    
Max Gust Speed 37 mph    
Visibility 10 miles    
Events Rain    
T = Trace of Precipitation, MM = Missing Value Source: NWS Daily Summary

Daily Weather History Graph

Daily Weather History Graph

Search for Another Location

Airport or City:

Trip Planner

Search our weather history database for the weather conditions in past years. The results will help you decide how hot, cold, wet, or windy it might be!

Date:

Astronomy

Nov. 13, 2011 Rise Set
Actual Time 7:13 AM CST 5:05 PM CST
Civil Twilight 6:43 AM CST 5:35 PM CST
Nautical Twilight 6:09 AM CST 6:09 PM CST
Astronomical Twilight 5:36 AM CST 6:42 PM CST
Moon 7:13 PM CST (11/13) 9:49 AM CST (11/13)
Length of Visible Light 10h 52m
Length of Day
9h 51m
Waning Gibbous, 92% of the Moon is Illuminated
Nov 13
Waning Gibbous
Nov 18
Last Quarter
Nov 25
New
Dec 2
First Quarter
Dec 10
Full

Hourly Weather History & Observations

Time (CST) Temp. Windchill Dew Point Humidity Pressure Visibility Wind Dir Wind Speed Gust Speed Precip Events Conditions
12:52 AM 42.1 °F 39.2 °F 33.1 °F 70% 29.29 in 10.0 mi South 4.6 mph - N/A   Clear
1:52 AM 42.1 °F 40.2 °F 33.1 °F 70% 29.29 in 10.0 mi NW 3.5 mph - N/A   Mostly Cloudy
2:52 AM 43.0 °F - 33.1 °F 68% 29.28 in 10.0 mi Calm Calm - N/A   Overcast
3:52 AM 48.9 °F - 37.0 °F 64% 29.30 in 10.0 mi NW 15.0 mph - 0.01 in Rain Light Rain
4:52 AM 46.0 °F 40.6 °F 39.0 °F 76% 29.20 in 10.0 mi East 11.5 mph - 0.00 in   Scattered Clouds
5:52 AM 41.0 °F - 37.4 °F 87% 29.21 in 10.0 mi Calm Calm - N/A   Clear
6:52 AM 46.0 °F 41.0 °F 37.9 °F 73% 29.26 in 10.0 mi WNW 10.4 mph - N/A   Overcast
7:52 AM 44.1 °F 38.1 °F 33.1 °F 65% 29.30 in 10.0 mi West 11.5 mph - N/A   Mostly Cloudy
8:52 AM 44.1 °F 38.6 °F 30.0 °F 58% 29.33 in 10.0 mi West 10.4 mph - N/A   Overcast
9:52 AM 45.0 °F 37.9 °F 30.0 °F 56% 29.36 in 10.0 mi West 16.1 mph 21.9 mph N/A   Overcast
10:52 AM 46.0 °F 37.8 °F 30.9 °F 56% 29.40 in 10.0 mi NW 23.0 mph 32.2 mph N/A   Overcast
11:52 AM 48.9 °F - 32.0 °F 52% 29.44 in 10.0 mi NW 20.7 mph 26.5 mph N/A   Clear
12:52 PM 50.0 °F - 33.1 °F 52% 29.44 in 10.0 mi WNW 11.5 mph - N/A   Clear
1:52 PM 52.0 °F - 34.0 °F 50% 29.46 in 10.0 mi WNW 12.7 mph - N/A   Clear
2:52 PM 52.0 °F - 32.0 °F 47% 29.48 in 10.0 mi WNW 13.8 mph - N/A   Clear
3:52 PM 51.1 °F - 32.0 °F 48% 29.48 in 10.0 mi WNW 8.1 mph - N/A   Clear
4:52 PM 48.0 °F - 30.9 °F 52% 29.51 in 10.0 mi WSW 6.9 mph - N/A   Clear
5:52 PM 46.0 °F 42.5 °F 30.0 °F 54% 29.53 in 10.0 mi SSW 6.9 mph - N/A   Clear
6:52 PM 44.1 °F 40.8 °F 30.0 °F 58% 29.54 in 10.0 mi SSW 5.8 mph - N/A   Clear
7:52 PM 42.1 °F 39.2 °F 28.9 °F 60% 29.55 in 10.0 mi SSW 4.6 mph - N/A   Clear
8:52 PM 41.0 °F 35.2 °F 28.9 °F 62% 29.57 in 10.0 mi SSW 9.2 mph - N/A   Clear
9:52 PM 36.0 °F 32.1 °F 27.0 °F 70% 29.58 in 10.0 mi SSE 4.6 mph - N/A   Clear
10:52 PM 34.0 °F 27.2 °F 26.1 °F 73% 29.57 in 10.0 mi East 8.1 mph - N/A   Clear
11:52 PM 33.1 °F 26.9 °F 26.1 °F 75% 29.55 in 10.0 mi East 6.9 mph - N/A   Clear